Hourly Data Report for August 26, 2020

LYTTON RCS
BRITISH COLUMBIA
Current Station Operator: ECCC - MSC

50°13'28.000" N
121°34'55.000" W
225.00 m
1114746
71765
VLY

Download Data

Hourly Data (August 2020)
Hourly Data Report for August 26, 2020
TIME Temp Definition
°C
Dew Point Definition
°C
Rel Hum Definition
%
Wind Dir Definition
10's deg

Wind Spd Definition
km/h
Visibility Definition
km
Stn Press Definition
kPa
Hmdx Definition


Wind Chill Definition


Weather Definition


00:00 19.2 9.7 54 18 34   98.58     LegendNANA
01:00 18.2 9.9 58 17 36   98.62     LegendNANA
02:00 17.6 10.0 61 17 32   98.66     LegendNANA
03:00 17.0 9.8 63 18 23   98.72     LegendNANA
04:00 16.3 9.6 64 16 14   98.79     LegendNANA
05:00 15.5 9.6 68 18 4   98.86     LegendNANA
06:00 14.2 9.6 74 0 1   98.92     LegendNANA
07:00 14.3 9.8 74 9 2   98.96     LegendNANA
08:00 16.3 9.3 64 18 5   98.95     LegendNANA
09:00 19.5 8.8 50 17 9   98.89     LegendNANA
10:00 22.7 8.9 42 17 13   98.81     LegendNANA
11:00 24.7 7.1 33 17 13   98.71 25   LegendNANA
12:00 26.9 7.2 29 17 14   98.59 27   LegendNANA
13:00 28.0 5.9 25 18 23   98.47 28   LegendNANA
14:00 29.4 5.9 23 19 18   98.37 29   LegendNANA
15:00 29.5 6.2 23 19 21   98.30 29   LegendNANA
16:00 28.0 6.7 26 19 14   98.25 28   LegendNANA
17:00 27.1 6.4 27 19 18   98.22 27   LegendNANA
18:00 26.2 7.2 30 21 13   98.22 26   LegendNANA
19:00 24.6 8.3 35 21 18   98.29 25   LegendNANA
20:00 23.4 8.7 39 20 21   98.36     LegendNANA
21:00 22.4 8.9 42 20 23   98.41     LegendNANA
22:00 21.0 8.8 46 19 27   98.48     LegendNANA
23:00 19.8 8.7 49 18 34   98.54     LegendNANA

Notes on Data Quality.

Legend

  • E = Estimated
  • M = Missing
  • NA = Not Available*
  • [empty] = Indicates an unobserved value
Date modified: